EW4498 Weather Reports


time (UTC)temp
C
wind
direction
speed
KPH
gust
KPH
rain 1hr
cm
rain 24hr
cm
rain mn
cm
humidity
%
barometer
mb
20260903194543 17 235 6.4 22.5 0.00 0.33 0.33 83 1007.4
20260903193148 17 162 6.4 16.1 0.00 0.33 0.33 85 1007.4
20260903191554 17 194 3.2 20.9 0.00 0.33 0.33 85 1007.3
20260903190044 17 221 4.8 20.9 0.00 0.33 0.33 85 1007.2
20260903184542 17 240 6.4 19.3 0.00 0.33 0.33 85 1007.2
20260903183145 18 244 11.3 22.5 0.00 0.33 0.33 86 1007.2
20260903181541 18 244 3.2 17.7 0.00 0.33 0.33 86 1006.9
20260903180044 18 240 4.8 12.9 0.00 0.33 0.33 86 1006.8
20260903174645 18 219 8.0 14.5 0.00 0.41 0.33 86 1006.6
20260903173050 18 253 6.4 14.5 0.00 0.41 0.33 86 1006.6
20260903171641 18 238 11.3 19.3 0.00 0.41 0.33 85 1006.5
20260903170059 19 207 6.4 16.1 0.00 0.41 0.33 86 1006.5
20260903164546 19 221 9.7 17.7 0.00 0.43 0.33 86 1006.4
20260903163143 19 238 6.4 24.1 0.00 0.43 0.33 85 1006.4
20260903161559 19 258 11.3 24.1 0.00 0.43 0.33 86 1006.4
20260903160128 19 200 6.4 19.3 0.00 0.43 0.33 87 1006.4
20260903154605 19 240 4.8 16.1 0.00 0.53 0.33 88 1006.5
20260903153148 18 227 4.8 16.1 0.00 0.53 0.33 89 1006.5
20260903151541 18 221 6.4 19.3 0.00 0.53 0.33 90 1006.5
20260903150147 18 205 6.4 14.5 0.00 0.53 0.33 90 1006.5
20260903144602 18 213 8.0 16.1 0.00 0.71 0.33 91 1006.7
20260903143153 18 233 4.8 16.1 0.00 0.71 0.33 92 1006.7
20260903141550 17 215 6.4 17.7 0.00 0.71 0.33 91 1006.9
20260903140049 18 219 4.8 16.1 0.03 0.71 0.33 91 1006.9
20260903134641 18 223 8.0 16.1 0.05 0.71 0.33 91 1006.9
20260903133046 17 212 9.7 20.9 0.05 0.71 0.33 92 1006.9
20260903131544 17 217 9.7 17.7 0.05 0.71 0.33 92 1007.0
20260903130001 17 215 8.0 14.5 0.03 0.71 0.28 92 1007.1
20260903124553 17 200 6.4 14.5 0.00 0.69 0.25 92 1007.2
20260903123005 17 218 6.4 16.1 0.03 0.69 0.25 92 1007.3
20260903121608 16 191 6.4 19.3 0.05 0.69 0.25 92 1007.4
20260903120044 16 209 8.0 16.1 0.08 0.69 0.25 92 1007.4
20260903114545 16 213 9.7 20.9 0.10 0.69 0.25 92 1007.7
20260903113002 16 185 8.0 19.3 0.08 0.66 0.23 92 1007.9
20260903111603 16 226 9.7 16.1 0.05 0.64 0.23 92 1008.1
20260903110047 16 192 8.0 24.1 0.03 0.61 0.18 92 1008.3
20260903104515 16 214 8.0 17.7 0.00 0.58 0.15 92 1008.5
20260903103102 16 190 4.8 17.7 0.03 0.58 0.15 93 1008.6
20260903101519 16 212 6.4 16.1 0.03 0.58 0.15 92 1008.6
20260903100109 16 207 9.7 17.7 0.05 0.58 0.15 92 1009.0
20260903094541 16 211 6.4 19.3 0.05 0.58 0.15 92 1009.3
20260903093138 16 198 6.4 12.9 0.03 0.56 0.15 92 1009.5
20260903091606 16 188 8.0 14.5 0.05 0.56 0.15 92 1009.7
20260903090037 16 203 6.4 11.3 0.03 0.53 0.13 92 1010.0
20260903084533 16 198 3.2 11.3 0.03 0.53 0.13 92 1010.1
20260903083025 15 206 6.4 16.1 0.03 0.53 0.13 91 1010.3
20260903081527 15 192 6.4 16.1 0.00 0.51 0.10 91 1010.4
20260903080012 16 205 9.7 16.1 0.03 0.51 0.10 91 1010.5
20260903074511 16 198 6.4 14.5 0.05 0.51 0.10 91 1010.6
20260903073014 16 202 6.4 12.9 0.05 0.51 0.10 92 1010.8
20260903071507 16 211 6.4 12.9 0.05 0.51 0.10 92 1010.8
20260903070006 16 205 3.2 8.0 0.05 0.51 0.08 92 1011.0
20260903063001 16 213 1.6 8.0 0.03 0.46 0.05 92 1011.4
20260903061600 16 187 4.8 9.7 0.03 0.46 0.05 92 1011.4
20260903060115 16 178 4.8 8.0 0.03 0.46 0.05 93 1011.6
20260903054556 16 213 1.6 9.7 0.00 0.43 0.03 93 1011.7
20260903053052 15 192 3.2 8.0 0.00 0.43 0.03 93 1011.9
20260903051549 15 217 1.6 6.4 0.00 0.43 0.03 93 1012.1
20260903050107 15 216 1.6 4.8 0.00 0.43 0.03 93 1012.2
20260903044543 15 206 3.2 8.0 0.03 0.43 0.03 93 1012.2
20260903043039 15 209 3.2 8.0 0.03 0.43 0.03 93 1012.4
20260903041536 15 218 1.6 4.8 0.03 0.43 0.03 93 1012.5
20260903040035 15 217 1.6 6.4 0.03 0.43 0.03 93 1012.7
20260903034534 15 222 1.6 6.4 0.00 0.43 0.00 93 1012.7
20260903033032 15 219 1.6 4.8 0.00 0.43 0.00 93 1012.8
20260903031530 15 218 1.6 6.4 0.00 0.43 0.00 93 1012.9
20260903030031 15 221 1.6 4.8 0.00 0.43 0.00 93 1012.9
20260903024528 15 213 1.6 8.0 0.00 0.43 0.00 93 1013.3
20260903023027 15 213 0.0 0.0 0.00 0.43 0.00 93 1013.2
20260903021529 15 214 0.0 0.0 0.00 0.43 0.00 93 1013.4
20260903020024 15 215 1.6 6.4 0.00 0.43 0.00 93 1013.6
20260903014523 15 201 0.0 4.8 0.00 0.43 0.00 93 1013.7
20260903013022 15 199 0.0 4.8 0.00 0.43 0.00 93 1013.8
20260903011520 15 198 1.6 8.0 0.00 0.43 0.00 92 1013.9
20260903010026 14 229 0.0 4.8 0.00 0.43 0.00 92 1014.0
20260903004518 14 229 0.0 0.0 0.00 0.43 0.00 92 1014.0
20260903003016 14 232 0.0 4.8 0.00 0.43 0.00 92 1014.1
20260903001515 14 233 3.2 6.4 0.00 0.43 0.00 92 1014.2
20260903000018 14 237 1.6 4.8 0.00 0.43 0.00 92 1014.2
20260902234517 14 240 1.6 4.8 0.00 0.43 0.00 92 1014.3
20260902233013 14 234 1.6 4.8 0.00 0.43 0.00 92 1014.3
20260902231526 14 220 1.6 6.4 0.00 0.43 0.00 91 1014.3
20260902230017 15 236 1.6 6.4 0.00 0.43 0.00 92 1014.3
20260902224510 15 225 1.6 8.0 0.00 0.43 0.00 92 1014.3
20260902223008 15 238 1.6 8.0 0.00 0.43 0.00 92 1014.4
20260902221503 15 241 3.2 8.0 0.00 0.43 0.00 92 1014.5
20260902220001 15 222 6.4 14.5 0.00 0.43 0.00 92 1014.5
20260902214501 14 220 0.0 9.7 0.00 0.43 0.43 91 1014.5
20260902213100 14 238 3.2 9.7 0.00 0.43 0.43 91 1014.4
20260902211559 15 223 1.6 8.0 0.00 0.43 0.43 91 1014.3
20260902210058 15 223 4.8 11.3 0.00 0.43 0.43 91 1014.3
20260902204559 15 223 4.8 11.3 0.00 0.43 0.43 91 1014.4
20260902203138 15 226 3.2 12.9 0.00 0.43 0.43 91 1014.5
20260902201551 15 227 4.8 11.3 0.00 0.43 0.43 91 1014.5
20260902200041 15 242 6.4 14.5 0.00 0.43 0.43 91 1014.6